星链-31896 (STARLINK-31896 )

导读

STARLINK-31896是美国太空探索技术公司(SpaceX)星链互联网星座的一员,于北京时间2024年5月23日由猎鹰9号火箭发射入轨。它属于Starlink v2.0 mini批次,运行在近地轨道,搭载先进通信与推进技术,支持自动避碰功能。作为星链星座的扩容卫星,它将进一步增强星座的全球覆盖能力,为全球用户提供高速低延迟的宽带互联网接入服务,推动普惠互联网的发展布局。

基本信息
目录编号:
59851
目录名称:
STARLINK-31896
国际标识:
2024-097S
轨道中心:
EARTH
卫星名称:
星链-31896
卫星全名:
星链-31896 (STARLINK-31896 )
卫星状态:
在轨 (已飞行756 天)
发射日期:
2024-05-23 UTC
国别 :
美国 (US)
星等 :
--
轨道信息
数据来源 国际轨道数据
星历时间: 2026-06-15T19:39:37+0800
2天前
查看轨道信息
半长轴: 6861.247km
偏心率: 0.000069
轨道倾角: 42.994°
近地点辐角 108.001°
升交点赤经 82.043°
平近点角 252.092°
近地点: 482.636km
远地点: 483.584km
周期: 94.268分钟
每日圈数: 15.275597
详细信息
固有亮度:
5
最大亮度:
1.5
卫星平台:
Starlink v2.0 mini
覆盖范围:
全球
运营商:
太空探索技术公司
运营商所在国:
美国
制造商(研发单位):
太空探索技术公司
制造商所在国:
美国
使用方式:
暂无
卫星简介
星链(Starlink)计划是由太空探索技术公司(SpaceX)提出的一个巨型低轨卫星互联网星座项目,计划在2019年至2024年间在太空搭建由约1.2万颗卫星组成的“星链”网络,其中1584颗将部署在地球上空550千米处的近地轨道,并从2020年开始工作。该卫星仍在工作。
2D轨道图
3D轨道图
轨道高度分析图
轨道倾角分析图
轨道综合分析图
查看轨道综合分析图